Погода в Владимире

Хотите узнать прогноз погоды в Владимире? Тогда Вам сюда: Погода в Владимире

Поиск расширенной информации на нашем сайте:

Полезная информация:

Новости сайта



14.11.2019
Обновлён Долгосрочный прогноз погоды по России и другим странам хСССР на ноябрь-декабрь 2019 года.
Опубликованы прогностические карты: Предварительный прогноз на декабрь 2019 года, Предварительный прогноз на январь 2020 года, Предварительная схема синоптических процессов на декабрь 2019 г..

11.11.2019
Обновлены Долгосрочный прогноз погоды по России и другим странам хСССР на ноябрь-декабрь 2019 года и Предварительный прогноз на зиму 2019/2020 годов

04.11.2019
Опубликован Долгосрочный прогноз погоды по России и другим странам хСССР на ноябрь 2019 года
Сравнение прогнозируемой аномалии приземной температуры воздуха на ноябрь 2019 года по разным моделям
Предварительный прогноз на зиму 2019/2020 года




Погода в Владимире - сегодня

Время (UTC), дата Ветер
(°,м/с) 
Видим.   Явления Облачность Т
(°С)
Тd
(°С)
f(%) Тe
(°С)
Pmin
(гПа)
dP
(гПа)
Po
(мм)
O2
(г/м3)
Тmin Tmax R s Состояние
почвы
00 18.11.19 220 (ЮЗ) 4000 м  дымка  10/4 600 м средняя 
[Sc|Ac As]
+3.4 +2.4 93 +2  1029.2  -0.5  756  300           
03 18.11.19 230 (ЮЗ) 4000 м  дымка  10/8 450 м средняя 
[Sc|Ac As]
+3.7 +2.6 92 +2  1029.1  -0.1  756  300  +3.3         
06 18.11.19 220 (ЮЗ) 4000 м  дымка  8/3 300 м средняя 
[St|Ac trans]
+3.1 +2.1 93 +1  1028.7  -0.4  755  301  +2.9         
09 18.11.19 240 (ЮЗ) 4000 м  дымка  10/8 150 м средняя 
[St|Ac und]
+4 +2.6 91 +2  1028.7  0.1  755  300           
12 18.11.19 260 (З) 4000 м  дымка  10/8 150 м средняя 
[St|Ac und]
+4.2 +2.8 91 +4  1029.1  0.4  756  299           
15 18.11.19 240 (ЮЗ) 4000 м  дымка  10/8 120 м средняя 
[St|Ac und]
+3.6 +2.5 92 +3  1029.4  0.2  756  300    +4.3       
18 18.11.19 260 (З) 2000 м  дымка  10/10 150 м 
[St]
+3.5 +2.6 94 +3  1029.8  0.4  756  300           
21 18.11.19 310 (СЗ) 2000 м  дымка  10/10 120 м 
[St]
+3.5 +2.8 95 +4  1030.5  0.4  757  301           
00 19.11.19 тихо ()   0500 м  туман  ?/?  
+3.8 +3.2 96 +4  1031.3  0.8  757  300           
03 19.11.19 тихо ()   0500 м  туман  ?/?  
+4.2 +4.2 100 +4  1031.6  0.4  758  300  +3.5         
06 19.11.19 080 (В) 2000 м  дымка{туман}  10/10 100 м 
[St]
+4.6 +3.9 95 +5  1032.4  0.8  758  300           
09 19.11.19 080 (В) 4000 м  дымка  10/10 180 м 
[Sc]
+4.9 +4 94 +6  1033.2  0.8  759  300           
12 19.11.19 090 (В) 4000 м  дымка  10/10 270 м 
[Sc]
+5.6 +3.6 87 +5  1033.6  0.5  759  299           
15 19.11.19 080 (В) 4000 м  дымка  8/5 630 м средняя 
[Sc|Ac trans]
+4.7 +2.4 85 +4  1034.9  1.1  760  301    +5.6       
18 19.11.19 080 (В) 4000 м  дымка  10/6 450 м средняя 
[Sc|Ac und]
+3.4 +1.4 87 +3  1036  761  303           
21 19.11.19 090 (В) 4000 м  дымка  10/6 420 м средняя 
[Sc|Ac und]
+2.8 +1.1 89 +2  1037.7  1.5  762  304           
00 20.11.19 090 (В) 4000 м  дымка{ливн. осадки}  10/10 240 м кучево-дожд. 
[Cb cap]
+1 -0.7 88 -1  1039.4  1.5  763  306           
03 20.11.19 090 (В) 4000 м  дымка  10/8 240 м средняя 
[St|Ac As]
-0.4 -2.7 84 -2  1041.3  1.8  764  309  -0.4    0.0     
06 20.11.19 090 (В) 10 км    10/10 400 м 
[Sc]
-2.3 -5.3 80 -4  1043.4  1.8  766  312  -2.3         
09 20.11.19 090 (В) 10 км    4/0 верхняя 
[Ci fib]
-1.9 -10.7 51 -3  1045  1.6  767  312           
12 20.11.19 090 (В) 10 км    4/0 верхняя 
[Ci fib]
-3.1 -17.5 32 -5  1046.1  768  314           
15 20.11.19 090 (В) 10 км    ясно 
-5.9 -14.9 49 -7  1048  1.6  769  318    -0.4       
18 20.11.19 130 (ЮВ) 10 км    ясно 
-7.7 -14.9 56 -7  1049.1  0.9  770  320           
21 20.11.19 160 (Ю) 10 км    ясно 
-9.3 -15 63 -9  1050.3  1.9  770  323           
00 21.11.19 140 (ЮВ) 10 км    ясно 
-10.5 -14.5 72 -10  1051.1  0.6  771  324           
Время (UTC), дата Ветер
(°,м/с) 
Видим.   Явления Облачность Т
(°С)
Тd
(°С)
f(%) Тe
(°С)
Pmin
(гПа)
dP
(гПа)
Po
(мм)
O2
(г/м3)
Тmin Tmax R s Состояние
почвы

Для получения пояснительной информации подведите курсор к названию столбца.

ПОГОДА в Владимире - архив

Всё, что Вы хотите узнать о погоде в Владимире - удобно и подробно!

Выберите нужную дату (начиная с 1 января 2019* года) и нажмите кнопку "Найти".
Будут отображены архивные сводки погоды по пункту Владимир, начиная с указанной даты.


Отображать данные в формате CSV (для использования в таблицах Excel)


Внимание! Наш архив погоды предназначен исключительно для личного некоммерческого использования в познавательных целях. Если Вам необходимы официальные справки о состоянии погоды (для производственных, юридических, коммерческих и т.п. целей), обращайтесь в органы Росгидромета.

*Примечание: данная дата относится к архиву по метеостанциям СССР (Россия, СНГ, Балтия).
Архив по метеостанциям Зарубежной Европы и Азии (кроме Китая) хранится 10 дней, по другим регионам земного шара (Китай, Африка, Америка, Австралия, Океания) - 1 день.

Владимир - район местоположения метеостанции


Название, широта, долгота, высота метеостанции:
Владимир 56.1°ш. 40.3°д. 172 м над ур. моря [Российская Федерация]

Дополнительная информация

В oтличие oт бoльшинства пoгoдных сайтoв мы публикуем пoдрoбную метеoинфoрмацию в детальнoм прoфессиoнальнoм фoрмате.

Характеристики температуры и влажнoсти вoздуха измеряются на высoте 2 м в тени вдали oт зданий и деревьев.
Скoрoсть ветра измеряется на высoте 10 м (на урoвне рoста челoвека скoрoсть ветра ниже в 1.5-2 раза). Если метеoстанция нахoдится в гoрoде или в лесу, тo скoрoсть ветра занижена на 2-4 м/с пo сравнению с oткрытым местoм. Скoрoсть ветра над акватoриями крупных рек и oзёр, а также на вершинах хoлмoв на 2-5 м/с выше, чем в oбычных услoвиях.
Атмoсфернoе давление в разных тoчках местнoсти мoжет значительнo oтличаться oт давления на метеoстанции, в зависимoсти oт услoвий рельефа (при пoдъёме на 10 м давление пoнижается примернo на 1 мм рт.ст.).